Retour au catalogue

SMS 2 AKM

ActifGEO
NORAD 20835·ROCKET BODY·🇺🇸 United States

Lancé Feb 6, 1975 depuis Cape Canaveral Space Force Station

Loading…

TLE

FraisSource: Space-Track

Époque: Sep 14, 2026, 14:06 UTC

1 20835U 75011F   26257.58792773  .00000035  00000-0  00000-0 0  9990
2 20835   3.5400 272.4590 0097980 147.6290 210.2630  0.98585930 47454

Suivez SMS 2 AKM en temps réel avec AllMySat

Download on the App Store